TimeADT,TemperatureF,Dew PointF,Humidity,Sea Level PressureIn,VisibilityMPH,Wind Direction,Wind SpeedMPH,Gust SpeedMPH,PrecipitationIn,Events,Conditions,WindDirDegrees,DateUTC
12:00 AM,68.0,64.4,88,29.73,15.0,WSW,8.1,-,N/A,,Mostly Cloudy,240,2013-06-25 03:00:00
1:00 AM,66.2,64.4,94,29.73,15.0,WSW,10.4,-,N/A,,Mostly Cloudy,240,2013-06-25 04:00:00
2:00 AM,66.2,62.6,88,29.72,15.0,WSW,9.2,-,N/A,,Mostly Cloudy,240,2013-06-25 05:00:00
3:00 AM,67,63,84,29.72,15,WSW,9.2,,,,Scattered Clouds,240,2013-06-25 06:00:00
3:00 AM,66.2,62.6,88,29.72,15.0,WSW,10.4,-,N/A,,Mostly Cloudy,240,2013-06-25 06:00:00
4:00 AM,66.2,62.6,88,29.73,12.0,WSW,12.7,-,N/A,Rain,Light Rain Showers,240,2013-06-25 07:00:00
4:26 AM,66.2,64.4,94,29.71,12.0,WSW,10.4,-,N/A,,Mostly Cloudy,240,2013-06-25 07:26:00
5:00 AM,66.2,62.6,88,29.71,12.0,WSW,9.2,-,N/A,,Mostly Cloudy,240,2013-06-25 08:00:00
6:00 AM,66.2,64.4,94,29.73,15.0,WSW,8.1,-,N/A,,Mostly Cloudy,250,2013-06-25 09:00:00
7:00 AM,68.0,64.4,88,29.73,15.0,WSW,9.2,-,N/A,,Mostly Cloudy,240,2013-06-25 10:00:00
8:00 AM,71.6,66.2,83,29.74,15.0,West,6.9,-,N/A,,Scattered Clouds,270,2013-06-25 11:00:00
9:00 AM,74,66,68,29.75,15,NW,5.8,,,,Partly Cloudy,310,2013-06-25 12:00:00
9:00 AM,75.2,66.2,73,29.75,15.0,NW,5.8,-,N/A,,Scattered Clouds,320,2013-06-25 12:00:00
10:00 AM,77.0,64.4,65,29.75,15.0,West,5.8,-,N/A,,Mostly Cloudy,280,2013-06-25 13:00:00
11:00 AM,78.8,66.2,65,29.75,15.0,NW,5.8,-,N/A,,Mostly Cloudy,320,2013-06-25 14:00:00
12:00 PM,71.6,64.4,78,29.76,15.0,North,6.9,-,N/A,,Overcast,10,2013-06-25 15:00:00
1:00 PM,75.2,66.2,73,29.76,15.0,NNE,2.3,-,N/A,,Overcast,30,2013-06-25 16:00:00
2:00 PM,77.0,68.0,74,29.75,15.0,ESE,4.6,-,N/A,,Overcast,110,2013-06-25 17:00:00
3:00 PM,78.8,66.2,65,29.74,15.0,Calm,Calm,-,N/A,,Overcast,0,2013-06-25 18:00:00
4:00 PM,78.8,68.0,69,29.73,15.0,NNE,10.4,-,N/A,,Overcast,20,2013-06-25 19:00:00
5:00 PM,71.6,64.4,78,29.72,15.0,NNE,5.8,-,N/A,,Overcast,20,2013-06-25 20:00:00
5:17 PM,71.6,62.6,73,29.71,15.0,NNE,10.4,-,N/A,Rain,Light Rain Showers,20,2013-06-25 20:17:00
5:49 PM,71.6,64.4,78,29.72,15.0,NNE,3.5,-,N/A,,Overcast,30,2013-06-25 20:49:00
6:00 PM,71.6,62.6,73,29.73,15.0,WNW,3.5,-,N/A,,Overcast,290,2013-06-25 21:00:00
7:00 PM,69.8,64.4,83,29.71,15.0,North,5.8,-,N/A,,Overcast,10,2013-06-25 22:00:00
8:00 PM,69.8,64.4,83,29.73,12.0,North,3.5,-,N/A,,Overcast,350,2013-06-25 23:00:00
9:00 PM,68,64,82,29.73,12,NNW,3.5,,,,Partly Cloudy,340,2013-06-26 00:00:00
9:00 PM,68.0,64.4,88,29.73,12.0,North,4.6,-,N/A,,Overcast,350,2013-06-26 00:00:00
10:00 PM,64.4,62.6,94,29.72,10.0,Calm,Calm,-,N/A,,Overcast,0,2013-06-26 01:00:00
11:00 PM,66.2,64.4,94,29.71,10.0,Variable,2.3,-,N/A,,Overcast,0,2013-06-26 02:00:00